Regional Weather Roundup
Issued by NWS Boston, MA

Home | Current Version | Previous Version | Text Only | Print | Product List | Glossary On
Versions: 1 2 3 4 5 6 7 8 9 10 11 12 13 14 15 16 17 18 19 20 21 22 23 24 25 26 27 28 29 30 31 32 33 34 35 36 37 38 39 40 41 42 43 44 45 46 47 48 49 50
000
ASUS41 KBOX 291110
RWRBOX

REGIONAL WEATHER ROUNDUP
NATIONAL WEATHER SERVICE TAUNTON MA
600 AM EST MON DEC 29 2014

NOTE:  "FAIR" INDICATES FEW OR NO CLOUDS BELOW 12,000 FEET WITH NO
SIGNIFICANT WEATHER AND/OR OBSTRUCTIONS TO VISIBILITY.  THE FOLLOWING
OBSERVATION LOCATIONS DO NOT REPORT PRESENT WEATHER...PROVINCETOWN...
SMITHFIELD...BLOCK ISLAND...KEENE...AND OXFORD.

MAZALL-291200-
EASTERN MASSACHUSETTS

CITY           SKY/WX    TMP DP  RH WIND       PRES   REMARKS
BOSTON         PTCLDY    36  22  56 W7        30.10R WCI  30
BEVERLY        PTCLDY    30  20  66 SW3       30.08R
LAWRENCE       PTCLDY    31  21  66 S5        30.10R WCI  26
BEDFORD        CLEAR     29  22  75 SW6       30.08R WCI  23
BLUE HILL        N/A     30  21  69 W9        30.06R WCI  22
NORWOOD        PTCLDY    28  22  78 CALM      30.10R
MARSHFIELD     PTCLDY    32  27  80 W5        30.12R WCI  27
PLYMOUTH       MOCLDY    32  24  72 W5        30.10R WCI  27
TAUNTON        PTCLDY    28  23  81 CALM      30.10R
NEW BEDFORD    MOCLDY    33  23  66 NW5       30.10R WCI  29
$$

MAZALL-291200-
CAPE COD AND THE ISLANDS

CITY           SKY/WX    TMP DP  RH WIND       PRES   REMARKS
FALMOUTH       CLOUDY    34  25  69 NW5       30.10R WCI  30
HYANNIS        CLOUDY    35  26  69 NW5       30.08R WCI  31
CHATHAM        MOCLDY    37  29  72 NW5       30.10R
PROVINCETOWN   PTCLDY    37  25  60 NW12G18   30.09R WCI  30
NANTUCKET      CLOUDY    38  27  64 NW13G21   30.09R WCI  30
MARTHAS VNYRD  CLOUDY    35  23  61 N6        30.10R WCI  30
$$

MAZALL-291200-
CENTRAL AND WESTERN MASSACHUSETTS

CITY           SKY/WX    TMP DP  RH WIND       PRES   REMARKS
WORCESTER      FAIR      26  20  77 SW7       30.06R WCI  18
FITCHBURG      CLEAR     27  22  81 CALM      30.08R
ORANGE         PTCLDY    27  23  85 S3        30.07R
SPRINGFIELD    PTCLDY    30  23  77 SW7       30.10R WCI  23
WESTFIELD      MOCLDY    34  23  64 VRB5      30.10R WCI  30
NORTH ADAMS    MOCLDY    32  22  66 VRB7      30.08R WCI  26
PITTSFIELD     MOCLDY    29  23  78 W8        30.05R WCI  21
$$

RIZALL-291200-
RHODE ISLAND

CITY           SKY/WX    TMP DP  RH WIND       PRES   REMARKS
PROVIDENCE     MOCLDY    33  22  63 W6        30.12R WCI  28
NEWPORT        MOCLDY    35  23  61 NW8       30.11R WCI  29
BLOCK ISLAND   CLOUDY    37  23  56 N9G16     30.11S WCI  31
SMITHFIELD     PTCLDY    27  16  63 W3        30.08R
WESTERLY       PTCLDY    33  24  69 CALM      30.13R
$$

CTZALL-291200-
CONNECTICUT

CITY           SKY/WX    TMP DP  RH WIND       PRES   REMARKS
BRADLEY INTL   MOCLDY    32  23  69 W3        30.11R
HARTFORD       PTCLDY    26  22  84 SE7       30.13R WCI  18
BRIDGEPORT     MOCLDY    31  24  75 CALM      30.15R
DANBURY        CLEAR     26  21  81 CALM      30.13R
GROTON         PTCLDY    33  24  69 W5        30.13R WCI  29
NEW HAVEN      PTCLDY    38  24  57 CALM      30.14R
CHESTER        FAIR      34  23  64 NW3       30.12R
MERIDEN        CLEAR     26  23  88 CALM      30.14R
WILLIMANTIC    CLEAR     27  23  85 CALM      30.12R
OXFORD         CLEAR     28  18  64 CALM      30.12R
$$

MEZ002-015-021-024-NHZ003-005-008-011-012-014-VTZ005-008-291200-
NORTHERN NEW ENGLAND

CITY           SKY/WX    TMP DP  RH WIND       PRES   REMARKS
PORTLAND ME    CLEAR     31  17  56 SW6       30.04R WCI  25
BANGOR ME      PTCLDY    29  19  66 SW5       29.98R WCI  24
CONCORD NH     CLEAR     26  20  77 S7        30.05R WCI  18
MANCHESTER NH  PTCLDY    31  20  63 SW5       30.06R WCI  26
NASHUA NH      CLEAR     27  22  81 CALM      30.08R
PORTSMOUTH NH  PTCLDY    30  21  68 SW6       30.05R WCI  24
JAFFREY NH     CLEAR     27  21  78 CALM      30.03R
KEENE NH       PTCLDY    28  23  80 S3        30.06R
BURLINGTON VT  LGT SNOW  30  24  78 N12       30.08R WCI  20
MT. WASHINGTON SNOWSHWR   5   5 100 NW64G71     N/A  VSB 1/16WCI -27
$$

NYZ052-076-291200-
EASTERN NEW YORK

CITY           SKY/WX    TMP DP  RH WIND       PRES   REMARKS
ALBANY         PTCLDY    32  24  72 N3        30.13R
NEW YORK CITY  PTCLDY    39  23  52 NW9       30.15R
$$

ANZALL-291200-
MARINE OBSERVATIONS

STATION/POSITION TIME  TEMP    WIND        PRES    VSBY  WAVE
                       AIR SEA DIR/SP/G                  HT/PER
                 (UTC) (F)     (DEG/KT/KT) (MB)    (MI)  (FT/S)
BOSTON BUOY      1050   38 44  300/ 14/ 16 1018.6R         2/ 3
BUZZARDS BAY     1000          320/ 13/ 15 1019.4R
NANTUCKET SOUND  1050   39 43  320/ 16/ 19 1018.6R         2/ 4
MASS BAY-STELLWA 1004   38 44  290/ 14/ 16   N/A    1 7/8  2/ 3
ISLE OF SHOALS   1000   36     270/ 11/ 12 1016.6R
S OF BLOCK IS    1008      51                N/A           5/ 5
$$

......................KEY.........................
  SKY/WX - SKY CONDITION/PRESENT WEATHER
  TMP    - TEMPERATURE IN FAHRENHEIT
  DWPT   - DEWPOINT IN FAHRENHEIT
  RH     - RELATIVE HUMIDITY IN PERCENT
  WIND   - DIRECTION AND SPEED IN MPH
  PRES   - MEAN SEA LEVEL PRESSURE IN INCHES OF HG
  WCI    - WIND CHILL INDEX
  VSB    - VISIBILITY IN MILES
  HX     - HEAT INDEX
  TC     - TEMPERATURE IN CELSIUS
  VRB    - VARIABLE WIND DIRECTION
  N/A    - NOT AVAILABLE



USA.gov is the U.S. government's official web portal to all federal, state and local government web resources and services.